Weather in Nove

Ukraine / Zaporizhia Region     46°47′01″N   35°16′39″E
temp.,
°C
wind,
m/s
gust,
m/s
humid.,
%
clouds,
%
prec.,
mm/h
press.,
hPa
HPBL,
m
2 march, tue
tue223:000n348423 0.0 102986
02:000nnw348217 0.0 103091
05:00−1nw23870 0.0 102959
08:00+1wnw35770 0.0 1030243
11:00+5w57560 0.0 10281052
14:00+6w795410 0.0 10261048
17:00+5wsw6116299 0.0 1023754
20:00+2wsw7147481 0.0 1022546
3 march, wed
wed323:00+3w7137974 0.0 1021571
02:00+2nw6117787 0.0 1020578
05:00+3nnw7128095 0.0 1021849
08:00+2nnw7107773 0.0 1024834
11:00+5nnw68581 0.0 10251094
14:00+7nnw79471 0.0 10251439
17:00+6nw37500 0.0 1025354
20:00+3nw34620 0.0 102762
4 march, thu
thu423:00+2w23680 0.0 102722
02:00+1wsw23750 0.0 102631
05:000wsw34780 0.0 102468
08:00+3sw58660 0.0 1024347
11:00+8sw79550 0.0 10221132
14:00+10sw810510 0.0 10191260
17:00+8sw611620 0.0 1017750
20:00+5sw6137521 0.0 1017530
5 march, fri
fri523:00+4sw6147936 0.0 1016524
02:00+3sw5138420 0.0 1015502
05:00+3sw513900 0.0 1015389
08:00+5sw6118419 0.0 1015498
11:00+9sw686981 0.0 1014667
14:00+12ssw795884 0.0 10131069
17:00+10s596491 0.0 1011329
20:00+7ssw5118058 0.0 1012312
6 march, sat
sat623:00+5sw410920 0.0 1012364
02:00+5sw379638 0.0 1012284
05:00+4nw369699 0.0 1012154
08:00+5n5787100 0.0 1014383
11:00+2n71094100 0.4 1015450
14:00+4n6967100 1.2 1016935
17:00+3nnw7950100 0.0 10181216
20:00+1nnw71155100 0.0 1021921